| time (UTC) | temp F | wind direction | speed MPH | gust MPH | rain 1hr in | rain 24hr in | rain mn in | humidity % | barometer mb |
| 20260906203100 | 73 | 316 | 1.0 | 4.0 | 0.00 | 0.00 | 0.00 | 56 | 1011.0 |
| 20260906201601 | 72 | 250 | 2.0 | 10.0 | 0.00 | 0.00 | 0.00 | 52 | 1010.9 |
| 20260906200059 | 73 | 192 | 6.0 | 14.0 | 0.00 | 0.00 | 0.00 | 52 | 1011.0 |
| 20260906200002 | 73 | 229 | 4.0 | 14.0 | 0.00 | 0.00 | 0.00 | 53 | 1011.0 |
| 20260906194600 | 75 | 188 | 5.0 | 13.0 | 0.00 | 0.00 | 0.00 | 53 | 1010.9 |
| 20260906193100 | 77 | 126 | 6.0 | 13.0 | 0.00 | 0.00 | 0.00 | 50 | 1011.0 |
| 20260906191601 | 78 | 123 | 8.0 | 14.0 | 0.00 | 0.00 | 0.00 | 46 | 1011.1 |
| 20260906190100 | 78 | 132 | 9.0 | 14.0 | 0.00 | 0.00 | 0.00 | 46 | 1011.3 |
| 20260906184608 | 79 | 111 | 6.0 | 12.0 | 0.00 | 0.00 | 0.00 | 45 | 1011.5 |
| 20260906183102 | 78 | 67 | 5.0 | 13.0 | 0.00 | 0.00 | 0.00 | 48 | 1011.7 |
| 20260906181602 | 78 | 86 | 7.0 | 13.0 | 0.00 | 0.00 | 0.00 | 48 | 1012.0 |
| 20260906180059 | 77 | 65 | 6.0 | 12.0 | 0.00 | 0.00 | 0.00 | 49 | 1012.4 |
| 20260906180001 | 77 | 88 | 7.0 | 12.0 | 0.00 | 0.00 | 0.00 | 49 | 1012.4 |
| 20260906174602 | 78 | 71 | 6.0 | 11.0 | 0.00 | 0.01 | 0.00 | 50 | 1012.6 |
| 20260906173106 | 79 | 88 | 4.0 | 9.0 | 0.00 | 0.01 | 0.00 | 47 | 1012.6 |
| 20260906171601 | 79 | 56 | 5.0 | 9.0 | 0.00 | 0.01 | 0.00 | 47 | 1012.7 |
| 20260906170100 | 77 | 59 | 3.0 | 10.0 | 0.00 | 0.01 | 0.00 | 49 | 1012.8 |
| 20260906164615 | 76 | 195 | 2.0 | 5.0 | 0.00 | 0.01 | 0.00 | 54 | 1012.9 |
| 20260906163059 | 75 | 154 | 1.0 | 6.0 | 0.00 | 0.01 | 0.00 | 54 | 1013.1 |
| 20260906161600 | 74 | 207 | 2.0 | 3.0 | 0.00 | 0.01 | 0.00 | 60 | 1013.1 |
| 20260906160058 | 72 | 273 | 0.0 | 2.0 | 0.00 | 0.01 | 0.00 | 66 | 1013.0 |
| 20260906160005 | 72 | 273 | 0.0 | 2.0 | 0.00 | 0.01 | 0.00 | 66 | 1013.0 |
| 20260906154601 | 70 | 273 | 0.0 | 2.0 | 0.00 | 0.01 | 0.00 | 70 | 1012.9 |
| 20260906153102 | 68 | 273 | 0.0 | 3.0 | 0.00 | 0.01 | 0.00 | 72 | 1013.0 |
| 20260906151607 | 66 | 273 | 1.0 | 6.0 | 0.00 | 0.01 | 0.00 | 73 | 1012.9 |
| 20260906150101 | 64 | 284 | 2.0 | 4.0 | 0.00 | 0.01 | 0.00 | 74 | 1013.1 |
| 20260906144616 | 64 | 271 | 2.0 | 4.0 | 0.00 | 0.01 | 0.00 | 75 | 1013.1 |
| 20260906143113 | 63 | 271 | 2.0 | 4.0 | 0.00 | 0.01 | 0.00 | 75 | 1013.2 |
| 20260906141558 | 62 | 271 | 3.0 | 7.0 | 0.00 | 0.01 | 0.00 | 77 | 1013.2 |
| 20260906140003 | 60 | 300 | 4.0 | 8.0 | 0.00 | 0.01 | 0.00 | 80 | 1013.2 |
| 20260906134559 | 58 | 267 | 4.0 | 7.0 | 0.00 | 0.01 | 0.00 | 82 | 1013.0 |
| 20260906133107 | 57 | 269 | 4.0 | 8.0 | 0.00 | 0.01 | 0.00 | 83 | 1013.1 |
| 20260906131605 | 57 | 265 | 4.0 | 8.0 | 0.00 | 0.01 | 0.00 | 84 | 1013.0 |
| 20260906130059 | 57 | 282 | 4.0 | 8.0 | 0.00 | 0.01 | 0.00 | 84 | 1012.9 |
| 20260906124602 | 57 | 269 | 4.0 | 8.0 | 0.00 | 0.01 | 0.00 | 84 | 1012.7 |
| 20260906123104 | 57 | 260 | 4.0 | 9.0 | 0.00 | 0.01 | 0.00 | 84 | 1012.6 |
| 20260906121600 | 57 | 244 | 4.0 | 9.0 | 0.00 | 0.01 | 0.00 | 84 | 1012.6 |
| 20260906120117 | 57 | 271 | 4.0 | 9.0 | 0.00 | 0.01 | 0.00 | 84 | 1012.6 |
| 20260906114558 | 57 | 300 | 3.0 | 8.0 | 0.00 | 0.01 | 0.00 | 84 | 1012.6 |
| 20260906113059 | 57 | 250 | 4.0 | 9.0 | 0.00 | 0.01 | 0.00 | 84 | 1012.5 |
| 20260906111558 | 57 | 269 | 4.0 | 7.0 | 0.00 | 0.01 | 0.00 | 84 | 1012.4 |
| 20260906110100 | 57 | 293 | 4.0 | 8.0 | 0.00 | 0.01 | 0.00 | 83 | 1012.4 |
| 20260906104558 | 57 | 245 | 4.0 | 8.0 | 0.00 | 0.01 | 0.00 | 83 | 1012.4 |
| 20260906103059 | 57 | 296 | 2.0 | 7.0 | 0.00 | 0.01 | 0.00 | 83 | 1012.3 |
| 20260906101558 | 58 | 263 | 3.0 | 8.0 | 0.00 | 0.01 | 0.00 | 83 | 1012.3 |
| 20260906100057 | 58 | 263 | 3.0 | 5.0 | 0.00 | 0.01 | 0.00 | 83 | 1012.4 |
| 20260906094559 | 58 | 285 | 3.0 | 6.0 | 0.00 | 0.01 | 0.00 | 82 | 1012.4 |
| 20260906093116 | 58 | 292 | 3.0 | 6.0 | 0.00 | 0.01 | 0.00 | 83 | 1012.4 |
| 20260906091559 | 58 | 299 | 3.0 | 7.0 | 0.00 | 0.01 | 0.00 | 83 | 1012.5 |
| 20260906090117 | 58 | 252 | 3.0 | 6.0 | 0.00 | 0.01 | 0.00 | 83 | 1012.4 |
| 20260906084558 | 58 | 260 | 4.0 | 7.0 | 0.00 | 0.01 | 0.00 | 83 | 1012.5 |
| 20260906083058 | 58 | 277 | 3.0 | 7.0 | 0.00 | 0.01 | 0.00 | 83 | 1012.6 |
| 20260906081600 | 58 | 277 | 4.0 | 10.0 | 0.00 | 0.01 | 0.00 | 83 | 1012.7 |
| 20260906080100 | 59 | 236 | 3.0 | 5.0 | 0.00 | 0.01 | 0.00 | 83 | 1012.8 |
| 20260906074600 | 59 | 300 | 1.0 | 5.0 | 0.00 | 0.01 | 0.00 | 82 | 1012.9 |
| 20260906073100 | 60 | 265 | 3.0 | 6.0 | 0.00 | 0.01 | 0.00 | 82 | 1012.9 |
| 20260906071609 | 60 | 296 | 2.0 | 4.0 | 0.00 | 0.01 | 0.00 | 82 | 1012.9 |
| 20260906070059 | 61 | 263 | 4.0 | 7.0 | 0.00 | 0.01 | 0.00 | 80 | 1013.0 |
| 20260906070001 | 61 | 263 | 4.0 | 7.0 | 0.00 | 0.01 | 0.00 | 80 | 1013.0 |
| 20260906064600 | 61 | 311 | 1.0 | 3.0 | 0.00 | 0.01 | 0.00 | 79 | 1013.1 |
| 20260906063103 | 62 | 304 | 2.0 | 6.0 | 0.00 | 0.01 | 0.00 | 78 | 1013.2 |
| 20260906061600 | 62 | 279 | 3.0 | 5.0 | 0.00 | 0.01 | 0.00 | 79 | 1013.1 |
| 20260906060101 | 62 | 284 | 1.0 | 3.0 | 0.00 | 0.01 | 0.00 | 79 | 1013.0 |
| 20260906054601 | 62 | 284 | 1.0 | 5.0 | 0.00 | 0.01 | 0.01 | 78 | 1013.1 |
| 20260906053059 | 62 | 269 | 2.0 | 4.0 | 0.00 | 0.01 | 0.01 | 77 | 1013.2 |
| 20260906051559 | 62 | 269 | 0.0 | 6.0 | 0.00 | 0.01 | 0.01 | 77 | 1013.2 |
| 20260906050131 | 62 | 279 | 3.0 | 8.0 | 0.00 | 0.01 | 0.01 | 77 | 1013.0 |
| 20260906044600 | 62 | 242 | 3.0 | 7.0 | 0.00 | 0.01 | 0.01 | 77 | 1013.0 |
| 20260906043109 | 62 | 270 | 3.0 | 8.0 | 0.00 | 0.01 | 0.01 | 77 | 1012.9 |
| 20260906041601 | 63 | 299 | 2.0 | 7.0 | 0.00 | 0.01 | 0.01 | 77 | 1013.0 |
| 20260906040100 | 63 | 249 | 4.0 | 8.0 | 0.00 | 0.01 | 0.01 | 77 | 1012.8 |
| 20260906040004 | 63 | 258 | 4.0 | 8.0 | 0.00 | 0.01 | 0.01 | 77 | 1012.8 |
| 20260906034501 | 63 | 299 | 3.0 | 7.0 | 0.00 | 0.01 | 0.01 | 78 | 1012.7 |
| 20260906033001 | 63 | 295 | 2.0 | 8.0 | 0.00 | 0.01 | 0.01 | 78 | 1012.5 |
| 20260906031501 | 63 | 267 | 3.0 | 8.0 | 0.00 | 0.01 | 0.01 | 78 | 1012.2 |
| 20260906030002 | 63 | 229 | 4.0 | 8.0 | 0.00 | 0.01 | 0.01 | 80 | 1011.9 |
| 20260906024603 | 63 | 260 | 3.0 | 7.0 | 0.00 | 0.02 | 0.01 | 80 | 1011.9 |
| 20260906023121 | 63 | 254 | 1.0 | 6.0 | 0.00 | 0.02 | 0.01 | 81 | 1011.8 |
| 20260906023000 | 63 | 254 | 1.0 | 8.0 | 0.00 | 0.02 | 0.01 | 81 | 1011.8 |
| 20260906021613 | 64 | 296 | 3.0 | 4.0 | 0.00 | 0.02 | 0.01 | 80 | 1011.3 |
| 20260906020001 | 65 | 296 | 0.0 | 4.0 | 0.00 | 0.02 | 0.01 | 78 | 1011.2 |
| 20260906014616 | 66 | 270 | 2.0 | 6.0 | 0.00 | 0.02 | 0.01 | 76 | 1011.1 |
| 20260906013101 | 67 | 278 | 2.0 | 7.0 | 0.00 | 0.02 | 0.01 | 74 | 1010.9 |
| 20260906011606 | 67 | 239 | 3.0 | 5.0 | 0.00 | 0.02 | 0.01 | 74 | 1010.8 |
| 20260906010100 | 67 | 277 | 1.0 | 3.0 | 0.00 | 0.02 | 0.01 | 74 | 1010.8 |
| 20260906010002 | 67 | 277 | 1.0 | 5.0 | 0.00 | 0.02 | 0.01 | 74 | 1010.8 |
| 20260906004601 | 68 | 260 | 3.0 | 4.0 | 0.00 | 0.02 | 0.01 | 74 | 1010.7 |
| 20260906003108 | 68 | 260 | 2.0 | 6.0 | 0.00 | 0.02 | 0.01 | 72 | 1010.8 |
| 20260906001600 | 69 | 278 | 2.0 | 7.0 | 0.00 | 0.02 | 0.01 | 70 | 1011.0 |
| 20260906000101 | 69 | 300 | 2.0 | 7.0 | 0.00 | 0.02 | 0.01 | 68 | 1011.3 |
| 20260906000003 | 69 | 327 | 1.0 | 7.0 | 0.00 | 0.02 | 0.01 | 68 | 1011.3 |
| 20260905234614 | 69 | 287 | 3.0 | 8.0 | 0.00 | 0.02 | 0.01 | 68 | 1011.1 |
| 20260905233059 | 69 | 252 | 3.0 | 11.0 | 0.00 | 0.02 | 0.01 | 66 | 1011.1 |
| 20260905231600 | 69 | 209 | 5.0 | 11.0 | 0.00 | 0.02 | 0.01 | 69 | 1011.0 |
| 20260905230001 | 71 | 153 | 3.0 | 5.0 | 0.00 | 0.02 | 0.01 | 63 | 1010.9 |
| 20260905224609 | 72 | 123 | 2.0 | 8.0 | 0.00 | 0.02 | 0.01 | 63 | 1010.8 |
| 20260905223059 | 71 | 140 | 5.0 | 10.0 | 0.00 | 0.02 | 0.01 | 63 | 1010.9 |
| 20260905221601 | 71 | 129 | 6.0 | 11.0 | 0.00 | 0.02 | 0.01 | 66 | 1010.9 |
| 20260905220100 | 72 | 96 | 2.0 | 4.0 | 0.00 | 0.02 | 0.01 | 63 | 1010.8 |
| 20260905220002 | 72 | 88 | 1.0 | 4.0 | 0.00 | 0.02 | 0.01 | 62 | 1010.8 |
| 20260905214609 | 72 | 92 | 3.0 | 8.0 | 0.00 | 0.02 | 0.01 | 65 | 1011.2 |
| 20260905213109 | 72 | 245 | 0.0 | 3.0 | 0.00 | 0.02 | 0.01 | 62 | 1011.6 |
| 20260905211602 | 71 | 292 | 2.0 | 9.0 | 0.00 | 0.02 | 0.01 | 66 | 1011.7 |
| 20260905210100 | 70 | 302 | 2.0 | 7.0 | 0.00 | 0.02 | 0.01 | 69 | 1011.9 |
| 20260905210004 | 70 | 302 | 3.0 | 6.0 | 0.00 | 0.02 | 0.01 | 68 | 1011.9 |
| 20260905204559 | 69 | 287 | 2.0 | 8.0 | 0.00 | 0.02 | 0.01 | 71 | 1012.2 |